| time (UTC) | temp C | wind direction | speed KPH | gust KPH | rain 1hr cm | rain 24hr cm | rain mn cm | humidity % | barometer mb |
| 20260905191553 | 27 | 57 | 0.0 | 14.5 | 0.00 | 0.00 | 0.00 | 57 | 1013.4 |
| 20260905190044 | 27 | 36 | 11.3 | 25.7 | 0.00 | 0.00 | 0.00 | 61 | 1011.9 |
| 20260905184537 | 26 | 17 | 12.9 | 20.9 | 0.00 | 0.00 | 0.00 | 56 | 1012.1 |
| 20260905183035 | 26 | 360 | 6.4 | 20.9 | 0.00 | 0.00 | 0.00 | 49 | 1011.9 |
| 20260905181534 | 26 | 26 | 4.8 | 17.7 | 0.00 | 0.00 | 0.00 | 41 | 1013.4 |
| 20260905180022 | 25 | 36 | 12.9 | 17.7 | 0.00 | 0.00 | 0.00 | 42 | 1014.0 |
| 20260905174518 | 25 | 14 | 8.0 | 14.5 | 0.00 | 0.00 | 0.00 | 15 | 1014.4 |
| 20260905173016 | 25 | 360 | 14.5 | 19.3 | 0.00 | 0.00 | 0.00 | 100 | 1014.1 |
| 20260905171522 | 23 | 342 | 11.3 | 16.1 | 0.00 | 0.00 | 0.00 | 100 | 1014.6 |
| 20260905170005 | 23 | 288 | 0.0 | 9.7 | 0.00 | 0.00 | 0.00 | 100 | 1014.8 |
| 20260905164601 | 22 | 309 | 8.0 | 17.7 | 0.00 | 0.00 | 0.00 | 100 | 1015.2 |
| 20260905163055 | 22 | 235 | 12.9 | 20.9 | 0.00 | 0.00 | 0.00 | 100 | 1015.5 |
| 20260905161550 | 23 | 5 | 0.0 | 0.0 | 0.00 | 0.00 | 0.00 | 100 | 1015.0 |
| 20260905160050 | 22 | 5 | 0.0 | 0.0 | 0.00 | 0.00 | 0.00 | 100 | 1014.9 |
| 20260905154554 | 22 | 5 | 0.0 | 1.6 | 0.00 | 0.00 | 0.00 | 100 | 1014.7 |
| 20260905153042 | 22 | 5 | 0.0 | 1.6 | 0.00 | 0.00 | 0.00 | 100 | 1014.7 |
| 20260905151536 | 22 | 5 | 0.0 | 0.0 | 0.00 | 0.00 | 0.00 | 100 | 1014.3 |
| 20260905150036 | 22 | 5 | 0.0 | 0.0 | 0.00 | 0.00 | 0.00 | 100 | 1014.2 |
| 20260905144535 | 22 | 5 | 0.0 | 0.0 | 0.00 | 0.00 | 0.00 | 100 | 1014.1 |
| 20260905143026 | 22 | 5 | 0.0 | 8.0 | 0.00 | 0.00 | 0.00 | 100 | 1013.9 |
| 20260905141520 | 22 | 360 | 0.0 | 0.0 | 0.00 | 0.00 | 0.00 | 100 | 1013.8 |
| 20260905140015 | 22 | 11 | 0.0 | 9.7 | 0.00 | 0.00 | 0.00 | 100 | 1013.5 |
| 20260905134511 | 22 | 16 | 1.6 | 6.4 | 0.00 | 0.00 | 0.00 | 100 | 1013.2 |
| 20260905133006 | 22 | 23 | 0.0 | 0.0 | 0.00 | 0.00 | 0.00 | 100 | 1012.9 |
| 20260905131501 | 22 | 23 | 0.0 | 0.0 | 0.00 | 0.00 | 0.00 | 100 | 1012.8 |
| 20260905130057 | -17 | 23 | 0.0 | 0.0 | 0.00 | 0.00 | 0.00 | 1012.6 | |
| 20260905124552 | -17 | 23 | 0.0 | 0.0 | 0.00 | 0.00 | 0.00 | 1012.3 | |
| 20260905123049 | -17 | 23 | 0.0 | 0.0 | 0.00 | 0.00 | 0.00 | 1012.1 | |
| 20260905121544 | -17 | 23 | 0.0 | 0.0 | 0.00 | 0.00 | 0.00 | 1011.9 | |
| 20260905120039 | -17 | 23 | 0.0 | 0.0 | 0.00 | 0.00 | 0.00 | 1011.9 | |
| 20260905114542 | -17 | 20 | 0.0 | 0.0 | 0.00 | 0.00 | 0.00 | 1011.7 | |
| 20260905113037 | -17 | 19 | 0.0 | 0.0 | 0.00 | 0.00 | 0.00 | 1011.7 | |
| 20260905111526 | -17 | 18 | 0.0 | 4.8 | 0.00 | 0.00 | 0.00 | 1011.7 | |
| 20260905110022 | -17 | 15 | 0.0 | 8.0 | 0.00 | 0.00 | 0.00 | 1011.6 | |
| 20260905104522 | -17 | 15 | 0.0 | 3.2 | 0.00 | 0.00 | 0.00 | 1011.8 | |
| 20260905103023 | -17 | 14 | 0.0 | 6.4 | 0.00 | 0.00 | 0.00 | 1011.9 | |
| 20260905101509 | 22 | 9 | 0.0 | 8.0 | 0.00 | 0.00 | 0.00 | 100 | 1011.8 |
| 20260905100010 | 21 | 29 | 0.0 | 0.0 | 0.00 | 0.00 | 0.00 | 100 | 1011.9 |
| 20260905094600 | 21 | 29 | 0.0 | 0.0 | 0.00 | 0.00 | 0.00 | 100 | 1011.6 |
| 20260905093100 | 21 | 17 | 0.0 | 0.0 | 0.00 | 0.00 | 0.00 | 100 | 1011.1 |
| 20260905091600 | 22 | 15 | 0.0 | 0.0 | 0.00 | 0.00 | 0.00 | 100 | 1010.9 |
| 20260905090046 | 22 | 15 | 0.0 | 0.0 | 0.00 | 0.00 | 0.00 | 100 | 1011.1 |
| 20260905084549 | 22 | 15 | 0.0 | 0.0 | 0.00 | 0.00 | 0.00 | 100 | 1011.3 |
| 20260905083040 | 22 | 27 | 0.0 | 8.0 | 0.00 | 0.00 | 0.00 | 100 | 1011.3 |
| 20260905081534 | 22 | 360 | 0.0 | 1.6 | 0.00 | 0.00 | 0.00 | 100 | 1011.4 |
| 20260905080040 | 22 | 198 | 0.0 | 0.0 | 0.00 | 0.00 | 0.00 | 100 | 1011.5 |
| 20260905074524 | 22 | 198 | 0.0 | 0.0 | 0.00 | 0.00 | 0.00 | 100 | 1011.3 |
| 20260905073024 | 22 | 198 | 0.0 | 0.0 | 0.00 | 0.00 | 0.00 | 100 | 1011.5 |
| 20260905071515 | 22 | 198 | 0.0 | 0.0 | 0.00 | 0.00 | 0.00 | 100 | 1011.4 |
| 20260905070016 | 22 | 198 | 0.0 | 0.0 | 0.00 | 0.00 | 0.00 | 100 | 1011.4 |
| 20260905064525 | 22 | 198 | 0.0 | 0.0 | 0.00 | 0.00 | 0.00 | 100 | 1011.4 |
| 20260905063011 | 22 | 198 | 0.0 | 0.0 | 0.00 | 0.00 | 0.00 | 100 | 1011.4 |
| 20260905061506 | 22 | 198 | 0.0 | 0.0 | 0.00 | 0.00 | 0.00 | 100 | 1011.5 |
| 20260905060005 | 22 | 198 | 0.0 | 0.0 | 0.00 | 0.00 | 0.00 | 100 | 1011.3 |
| 20260905054558 | 23 | 198 | 0.0 | 0.0 | 0.00 | 0.00 | 0.00 | 100 | 1011.2 |
| 20260905053059 | 23 | 198 | 0.0 | 0.0 | 0.00 | 0.00 | 0.00 | 100 | 1011.2 |
| 20260905051549 | 23 | 198 | 0.0 | 0.0 | 0.00 | 0.00 | 0.00 | 100 | 1011.1 |
| 20260905050044 | 23 | 198 | 0.0 | 0.0 | 0.00 | 0.00 | 0.00 | 100 | 1011.1 |
| 20260905044542 | 23 | 198 | 0.0 | 0.0 | 0.00 | 0.00 | 0.00 | 100 | 1010.9 |
| 20260905043041 | 23 | 198 | 0.0 | 0.0 | 0.00 | 0.00 | 0.00 | 100 | 1010.9 |
| 20260905041540 | 23 | 198 | 0.0 | 0.0 | 0.00 | 0.00 | 0.00 | 100 | 1011.0 |
| 20260905040040 | 23 | 198 | 0.0 | 0.0 | 0.00 | 0.00 | 0.00 | 100 | 1010.9 |
| 20260905034539 | 23 | 198 | 0.0 | 0.0 | 0.00 | 0.00 | 0.00 | 100 | 1011.0 |
| 20260905033037 | 24 | 198 | 0.0 | 0.0 | 0.00 | 0.00 | 0.00 | 100 | 1011.0 |
| 20260905031531 | 24 | 198 | 0.0 | 0.0 | 0.00 | 0.00 | 0.00 | 100 | 1010.9 |
| 20260905030034 | 25 | 198 | 0.0 | 0.0 | 0.00 | 0.00 | 0.00 | 100 | 1010.9 |
| 20260905024530 | 25 | 198 | 0.0 | 0.0 | 0.00 | 0.00 | 0.00 | 5 | 1010.8 |
| 20260905023020 | 25 | 198 | 0.0 | 0.0 | 0.00 | 0.00 | 0.00 | 12 | 1010.6 |
| 20260905021518 | 25 | 198 | 0.0 | 0.0 | 0.00 | 0.00 | 0.00 | 18 | 1010.5 |
| 20260905020025 | 25 | 198 | 0.0 | 0.0 | 0.00 | 0.00 | 0.00 | 26 | 1010.4 |
| 20260905014516 | 26 | 198 | 0.0 | 0.0 | 0.00 | 0.00 | 0.00 | 24 | 1010.2 |
| 20260905013014 | 26 | 198 | 0.0 | 0.0 | 0.00 | 0.00 | 0.00 | 25 | 1010.1 |
| 20260905011510 | 27 | 198 | 0.0 | 0.0 | 0.00 | 0.00 | 0.00 | 29 | 1009.8 |
| 20260905010010 | 27 | 198 | 0.0 | 0.0 | 0.00 | 0.00 | 0.00 | 43 | 1009.7 |
| 20260905004510 | 28 | 198 | 0.0 | 0.0 | 0.00 | 0.00 | 0.00 | 49 | 1009.7 |
| 20260905003008 | 28 | 198 | 0.0 | 0.0 | 0.00 | 0.00 | 0.00 | 56 | 1009.7 |
| 20260905001507 | 28 | 198 | 0.0 | 0.0 | 0.00 | 0.00 | 0.00 | 63 | 1009.6 |
| 20260905000005 | 29 | 198 | 0.0 | 0.0 | 0.00 | 0.00 | 0.00 | 67 | 1009.5 |
| 20260904234507 | 30 | 198 | 0.0 | 0.0 | 0.00 | 0.00 | 0.00 | 69 | 1009.6 |
| 20260904233004 | 30 | 198 | 0.0 | 0.0 | 0.00 | 0.00 | 0.00 | 69 | 1009.4 |
| 20260904231504 | 31 | 198 | 0.0 | 0.0 | 0.00 | 0.00 | 0.00 | 69 | 1009.2 |
| 20260904230003 | 31 | 197 | 0.0 | 1.6 | 0.00 | 0.00 | 0.00 | 69 | 1009.2 |
| 20260904224501 | 31 | 202 | 0.0 | 4.8 | 0.00 | 0.00 | 0.00 | 69 | 1009.1 |
| 20260904223001 | 31 | 246 | 0.0 | 0.0 | 0.00 | 0.00 | 0.00 | 68 | 1008.9 |
| 20260904221610 | 31 | 247 | 3.2 | 8.0 | 0.00 | 0.00 | 0.00 | 69 | 1008.8 |
| 20260904214611 | 31 | 360 | 0.0 | 0.0 | 0.00 | 0.00 | 0.00 | 69 | 1008.8 |
| 20260904213058 | 31 | 159 | 0.0 | 0.0 | 0.00 | 0.00 | 0.00 | 69 | 1008.9 |
| 20260904211606 | 31 | 159 | 0.0 | 3.2 | 0.00 | 0.00 | 0.00 | 67 | 1009.1 |
| 20260904210057 | 32 | 222 | 0.0 | 4.8 | 0.00 | 0.00 | 0.00 | 66 | 1009.0 |
| 20260904204556 | 32 | 213 | 0.0 | 8.0 | 0.00 | 0.00 | 0.00 | 67 | 1008.9 |
| 20260904203057 | 32 | 259 | 0.0 | 0.0 | 0.00 | 0.00 | 0.00 | 67 | 1008.8 |
| 20260904201554 | 32 | 124 | 0.0 | 3.2 | 0.00 | 0.00 | 0.00 | 68 | 1008.8 |
| 20260904200106 | 31 | 138 | 0.0 | 4.8 | 0.00 | 0.00 | 0.00 | 68 | 1008.8 |
| 20260904194557 | 31 | 339 | 0.0 | 3.2 | 0.00 | 0.00 | 0.00 | 69 | 1008.9 |
| 20260904193053 | 31 | 89 | 0.0 | 11.3 | 0.00 | 0.00 | 0.00 | 68 | 1008.9 |